sat.trackr.live / text

‹ back to catalog

GLOBALSTAR M096

NORAD 39075 · 2013-005D

PAYLOAD ACTIVE UNKNOWN

§ Identity

Operator
Country
GLOB
Launch date
2013-02-06
Launch site
TYMSC
Launch vehicle
Mass (kg)
RCS (m²)
4.58

Purposes: comms

External: N2YO · Heavens-Above · Gunter

§ Orbital elements

Epoch: 2026-09-13T02:56:55.708800Z

Period
114.08 min
Inclination
52.0073°
Eccentricity
0.0000544
Mean motion
12.62264426 rev/d
Perigee alt
1,413.2 km
Apogee alt
1,414.0 km
Semi-major
7,791.7 km
B*
6.2345e-5
RAAN
291.9331°
Arg perigee
115.6816°
Mean anomaly
244.4107°
Rev number
62,849

§ Raw data

GLOBALSTAR M0961 39075U 13005D   26256.12286700 -.00000093  00000+0  62345-4 0  99962 39075  52.0073 291.9331 0000544 115.6816 244.4107 12.62264426628498

JSON: /api/v1/satellites/39075 · /tle

For live sub-satellite position, see the globe view (requires WebGL).

§ Visibility from observer

Set your observer location to see the next 7 days of passes ≥ 10°. The values pass through the URL so the page stays shareable.

No JS? Fill the form by hand. The geolocation button needs JavaScript.